Weather History for Crane Lake, MN

Change the Weather History Date:

Monday, March 5, 2012

  Actual Average Record
Temperature  
Mean Temperature 7 °F -  
Max Temperature 28 °F 24 °F 46 °F (2009)
Min Temperature -14 °F 2 °F -29 °F (2003)
Degree Days  
Heating Degree Days 58    
Moisture  
Dew Point 0 °F    
Average Humidity 74    
Maximum Humidity 92    
Minimum Humidity 51    
Precipitation  
Precipitation 0.00 in - - ()
Sea Level Pressure  
Sea Level Pressure 30.02 in    
Wind  
Wind Speed 2 mph (South)    
Max Wind Speed 12 mph    
Max Gust Speed 18 mph    
Visibility 9 miles    
Events Snow    
Averages and records for this station are not official NWS values.
T = Trace of Precipitation, MM = Missing Value Source: NWS Daily Summary

Daily Weather History Graph

Daily Weather History Graph

Search for Another Location

Airport:

Trip Planner

Search our weather history database for the weather conditions in past years. The results will help you decide how hot, cold, wet, or windy it might be!

Date:

Astronomy

Mar. 05, 2012 Rise Set
Actual Time 6:42 AM CST 6:01 PM CST
Civil Twilight 6:11 AM CST 6:32 PM CST
Nautical Twilight 5:35 AM CST 7:08 PM CST
Astronomical Twilight 4:58 AM CST 7:44 PM CST
Moon 3:09 PM CST (3/5) 4:53 AM CST (3/5)
Length of Visible Light 12h 21m
Length of Day
11h 18m
Waxing Gibbous, 91% of the Moon is Illuminated
Mar 5
Waxing Gibbous
Mar 8
Full
Mar 14
Last Quarter
Mar 22
New
Mar 30
First Quarter

Hourly Weather History & Observations

Time (CST) Temp. Windchill Dew Point Humidity Pressure Visibility Wind Dir Wind Speed Gust Speed Precip Events Conditions
12:02 AM -9.4 °F - -13.0 °F 84% 30.04 in 10.0 mi Calm Calm - N/A   Clear
12:22 AM -9.4 °F - -14.8 °F 77% 30.04 in 10.0 mi Calm Calm - N/A   Clear
12:42 AM -9.4 °F - -14.8 °F 77% 30.04 in 10.0 mi Calm Calm - N/A   Clear
1:02 AM -9.4 °F - -14.8 °F 77% 30.05 in 10.0 mi Calm Calm - N/A   Clear
1:22 AM -11.2 °F - -14.8 °F 84% 30.05 in 10.0 mi Calm Calm - N/A   Clear
1:42 AM -11.2 °F - -16.6 °F 77% 30.05 in 10.0 mi Calm Calm - N/A   Clear
2:02 AM -11.2 °F - -16.6 °F 77% 30.06 in 10.0 mi Calm Calm - N/A   Clear
2:22 AM -11.2 °F - -16.6 °F 77% 30.06 in 10.0 mi Calm Calm - N/A   Clear
2:42 AM -13.0 °F - -16.6 °F 84% 30.06 in 10.0 mi Calm Calm - N/A   Clear
3:02 AM -11.2 °F - -16.6 °F 77% 30.06 in 10.0 mi Calm Calm - N/A   Mostly Cloudy
3:22 AM -13.0 °F - -16.6 °F 84% 30.07 in 10.0 mi Calm Calm - N/A   Scattered Clouds
3:42 AM -13.0 °F - -18.4 °F 77% 30.07 in 10.0 mi Calm Calm - N/A   Clear
4:22 AM -14.8 °F - -18.4 °F 84% 30.08 in 10.0 mi Calm Calm - N/A   Clear
4:42 AM -14.8 °F - -18.4 °F 84% 30.08 in 10.0 mi Calm Calm - N/A   Clear
5:02 AM -14.8 °F - -18.4 °F 84% 30.09 in 10.0 mi Calm Calm - N/A   Clear
5:22 AM -14.8 °F - -18.4 °F 84% 30.08 in 10.0 mi Calm Calm - N/A   Clear
5:43 AM -14.8 °F - -18.4 °F 84% 30.09 in 10.0 mi Calm Calm - N/A   Clear
6:02 AM -14.8 °F - -18.4 °F 84% 30.08 in 10.0 mi Calm Calm - N/A   Clear
6:22 AM -14.8 °F - -20.2 °F 77% 30.08 in 10.0 mi Calm Calm - N/A   Clear
6:42 AM -14.8 °F - -20.2 °F 77% 30.08 in 10.0 mi Calm Calm - N/A   Clear
7:02 AM -14.8 °F - -18.4 °F 84% 30.09 in 10.0 mi Calm Calm - N/A   Clear
7:22 AM -13.0 °F - -18.4 °F 77% 30.07 in 3.0 mi Calm Calm - N/A Snow Light Snow
7:42 AM -9.4 °F - -14.8 °F 77% 30.06 in 4.0 mi Calm Calm - N/A Snow Light Snow
8:02 AM -5.8 °F - -9.4 °F 84% 30.06 in 2.5 mi Calm Calm - N/A Snow Light Snow
8:22 AM 3.2 °F - 1.4 °F 92% 30.06 in 2.5 mi Calm Calm - N/A Snow Light Snow
8:42 AM 6.8 °F -3.5 °F 3.2 °F 85% 30.07 in 4.0 mi SSW 5.8 mph - N/A Snow Light Snow
9:02 AM 10.4 °F - 6.8 °F 85% 30.06 in 10.0 mi Calm Calm - N/A   Clear
9:22 AM 12.2 °F 4.3 °F 8.6 °F 85% 30.06 in 10.0 mi South 4.6 mph - N/A   Clear
9:42 AM 15.8 °F 5.1 °F 10.4 °F 79% 30.05 in 10.0 mi South 8.1 mph - N/A   Clear
10:03 AM 17.6 °F 10.7 °F 10.4 °F 73% 30.06 in 10.0 mi South 4.6 mph - N/A   Clear
10:22 AM 19.4 °F 9.5 °F 10.4 °F 68% 30.05 in 10.0 mi South 8.1 mph - N/A   Scattered Clouds
10:42 AM 21.2 °F 11.7 °F 12.2 °F 68% 30.04 in 10.0 mi South 8.1 mph 16.1 mph N/A   Clear
11:02 AM 21.2 °F 11.7 °F 12.2 °F 68% 30.05 in 10.0 mi South 8.1 mph 18.4 mph N/A   Scattered Clouds
11:22 AM 23.0 °F 12.4 °F 12.2 °F 63% 30.04 in 10.0 mi South 10.4 mph - N/A   Scattered Clouds
11:42 AM 24.8 °F 16.9 °F 12.2 °F 59% 30.02 in 10.0 mi South 6.9 mph - N/A   Scattered Clouds
12:02 PM 24.8 °F 17.9 °F 12.2 °F 59% 30.00 in 10.0 mi SSE 5.8 mph - N/A   Clear
12:22 PM 26.6 °F 19.1 °F 12.2 °F 55% 29.98 in 10.0 mi South 6.9 mph - N/A   Clear
12:42 PM 26.6 °F 19.1 °F 12.2 °F 55% 29.98 in 10.0 mi South 6.9 mph - N/A   Scattered Clouds
1:02 PM 26.6 °F 20.0 °F 12.2 °F 55% 29.97 in 10.0 mi South 5.8 mph - N/A   Scattered Clouds
1:22 PM 26.6 °F 22.6 °F 12.2 °F 55% 29.96 in 10.0 mi South 3.5 mph - N/A   Scattered Clouds
1:43 PM 28.4 °F 21.2 °F 12.2 °F 51% 29.95 in 10.0 mi South 6.9 mph - N/A   Scattered Clouds
2:02 PM 28.4 °F 23.3 °F 12.2 °F 51% 29.95 in 10.0 mi South 4.6 mph - N/A   Clear
2:23 PM 28.4 °F 18.5 °F 12.2 °F 51% 29.96 in 10.0 mi South 11.5 mph 17.3 mph N/A   Clear
2:42 PM 28.4 °F 19.7 °F 12.2 °F 51% 29.95 in 10.0 mi SSW 9.2 mph - N/A   Scattered Clouds
3:02 PM 28.4 °F 20.4 °F 14.0 °F 55% 29.95 in 10.0 mi SSW 8.1 mph - N/A   Clear
3:22 PM 28.4 °F 21.2 °F 15.8 °F 59% 29.93 in 10.0 mi SSE 6.9 mph - N/A   Clear
3:42 PM 26.6 °F 17.5 °F 19.4 °F 74% 29.93 in 2.5 mi South 9.2 mph - N/A Snow Light Snow
4:02 PM 26.6 °F 19.1 °F 21.2 °F 80% 29.91 in 1.8 mi SSE 6.9 mph - N/A Snow Light Snow
4:22 PM 26.6 °F 21.2 °F 21.2 °F 80% 29.91 in 3.0 mi SSE 4.6 mph - N/A Snow Light Snow
4:42 PM 26.6 °F 17.5 °F 21.2 °F 80% 29.91 in 10.0 mi SSE 9.2 mph - N/A Snow Light Snow
5:02 PM 26.6 °F 20.0 °F 19.4 °F 74% 29.91 in 10.0 mi SSE 5.8 mph - N/A   Overcast
5:42 PM 24.8 °F 19.1 °F 19.4 °F 80% 29.90 in 10.0 mi SE 4.6 mph - N/A   Mostly Cloudy
6:02 PM 24.8 °F 16.9 °F 19.4 °F 80% 29.90 in 10.0 mi SSE 6.9 mph - N/A   Mostly Cloudy
6:22 PM 24.8 °F 17.9 °F 19.4 °F 80% 29.91 in 10.0 mi SSE 5.8 mph - N/A   Mostly Cloudy
6:42 PM 24.8 °F 17.9 °F 19.4 °F 80% 29.91 in 10.0 mi SSE 5.8 mph - N/A   Overcast
7:02 PM 24.8 °F - 19.4 °F 80% 29.91 in 10.0 mi Calm Calm - N/A   Mostly Cloudy
7:22 PM 24.8 °F 17.9 °F 19.4 °F 80% 29.90 in 10.0 mi SE 5.8 mph - N/A   Mostly Cloudy
7:42 PM 24.8 °F 19.1 °F 19.4 °F 80% 29.89 in 10.0 mi SSE 4.6 mph - N/A   Overcast
8:02 PM 24.8 °F - 19.4 °F 80% 29.90 in 10.0 mi Calm Calm - N/A   Overcast
8:22 PM 24.8 °F 17.9 °F 19.4 °F 80% 29.89 in 10.0 mi SSE 5.8 mph - N/A   Overcast
8:42 PM 24.8 °F 19.1 °F 19.4 °F 80% 29.88 in 10.0 mi SSE 4.6 mph - N/A   Overcast
9:02 PM 24.8 °F 17.9 °F 19.4 °F 80% 29.88 in 10.0 mi SSE 5.8 mph - N/A   Mostly Cloudy
9:22 PM 24.8 °F 16.9 °F 19.4 °F 80% 29.87 in 10.0 mi SSE 6.9 mph - N/A   Mostly Cloudy
9:42 PM 24.8 °F 19.1 °F 19.4 °F 80% 29.87 in 10.0 mi SSE 4.6 mph - N/A   Overcast
10:02 PM 24.8 °F 19.1 °F 19.4 °F 80% 29.86 in 10.0 mi SSE 4.6 mph - N/A   Overcast
10:22 PM 24.8 °F 17.9 °F 19.4 °F 80% 29.85 in 10.0 mi SSE 5.8 mph - N/A   Overcast
10:42 PM 26.6 °F 21.2 °F 19.4 °F 74% 29.84 in 10.0 mi SSE 4.6 mph - N/A   Overcast
11:02 PM 26.6 °F 22.6 °F 19.4 °F 74% 29.83 in 10.0 mi SSE 3.5 mph - N/A   Overcast
11:22 PM 26.6 °F 22.6 °F 19.4 °F 74% 29.83 in 10.0 mi SE 3.5 mph - N/A   Overcast
11:42 PM 26.6 °F 21.2 °F 19.4 °F 74% 29.82 in 10.0 mi SSE 4.6 mph - N/A   Overcast